Retour au catalogue

COSMOS 385

ActifMilitaireLEO
NORAD 4799·PAYLOAD·🇷🇺 Russia

Lancé Dec 12, 1970 depuis Plesetsk Cosmodrome

Loading…

Prochains Passages (prochaines 24 heures)

TLE

FraisSource: Space-Track

Époque: Sep 14, 2026, 09:50 UTC

1 04799U 70108A   26257.41033179 -.00000013  00000-0  94424-5 0  9998
2 04799  74.0187 241.0240 0003640 182.9453 329.9737 13.76985961800830

Suivez COSMOS 385 en temps réel avec AllMySat

Download on the App Store